Wind_Speed
22 23 23 16 17 18 19 18 19 18 19 23 25 28 23 20 25 23 22 23 23 23 19 25 26 28 29 27 25 25 26 27 27 30 30 28 26 25 25 25 26 26 27 27
26 28 19 21 21 21 21 23 22 21 21 23 25 32 29 26 26 24 24 25 24 24 23 25 28 30 30 29 29 29 28 29 29 30 32 31 29 28 28 27 27 28 28 28
23 19 14 23 23 26 26 26 21 20 23 28 31 42 35 29 27 23 22 22 23 22 22 25 30 34 34 34 32 31 31 31 32 33 34 34 32 32 31 29 28 30 31 30
23 24 23 25 25 17 23 20 20 21 19 19 22 13 40 34 33 30 24 20 20 23 26 24 27 33 35 34 35 35 36 36 36 36 37 37 35 34 32 32 31 30 32 31
30 26 25 28 29 23 28 24 22 20 19 25 32 18 36 40 39 33 27 23 17 17 23 24 29 34 35 38 38 39 40 40 40 39 39 39 38 36 35 36 34 33 33 32
39 36 31 29 27 21 25 20 16 15 15 11 26 18 43 35 33 25 17 21 15 22 25 20 25 31 31 33 37 37 38 40 41 42 41 41 39 37 37 37 36 34 34 33
43 44 41 38 33 24 23 16 4 3 3 10 9 16 50 33 33 36 23 20 21 21 24 28 25 24 23 24 27 28 30 33 34 38 42 42 40 39 38 37 37 35 34 32
25 25 41 44 44 32 30 33 17 8 5 4 8 19 35 32 35 36 38 23 19 14 20 22 23 26 25 26 29 33 33 32 33 34 37 40 40 39 38 38 37 35 34 33
10 21 23 20 18 32 32 37 36 26 25 8 20 45 55 49 41 23 13 12 17 17 21 20 18 13 11 13 17 20 24 30 33 34 36 38 39 39 37 36 36 35 35 35
27 27 26 14 20 26 38 23 14 16 4 4 13 21 35 19 29 20 10 13 18 18 16 14 11 10 14 20 20 22 22 22 28 34 35 37 38 38 37 37 36 35 36 38
23 29 22 19 30 35 30 36 21 15 18 5 2 14 26 18 7 4 6 14 19 8 8 14 13 13 24 27 21 20 21 21 24 29 32 36 38 39 37 37 37 37 38 39
26 17 32 39 32 23 32 40 43 23 10 16 22 39 25 22 20 13 9 16 17 14 22 19 19 25 28 28 19 20 19 22 21 25 30 34 37 39 40 40 38 39 39 40
30 21 15 13 23 32 40 37 39 42 32 28 17 37 32 20 13 15 18 23 17 25 18 16 23 31 35 34 27 26 23 21 21 23 26 30 33 37 40 40 39 40 41 42
37 31 29 28 18 13 30 45 49 46 35 52 35 64 60 48 37 29 19 25 28 17 20 30 41 43 43 32 28 30 29 26 25 26 26 27 30 33 36 39 40 42 42 43
38 38 40 46 42 34 30 27 23 45 54 37 61 51 70 58 56 50 41 34 33 35 43 51 49 46 43 40 36 36 34 31 30 29 28 28 26 30 34 37 40 43 44 44
38 34 40 47 51 51 48 40 34 39 42 42 52 54 51 44 46 46 43 40 42 42 43 43 43 44 44 42 39 39 36 36 34 36 33 32 31 30 32 36 40 43 44 45
27 35 33 42 52 37 33 59 59 55 54 55 53 55 45 47 46 49 48 46 45 46 43 40 40 43 46 44 42 41 42 41 39 38 37 36 34 34 32 34 39 43 45 45
49 35 37 33 30 14 46 49 49 52 56 60 61 58 52 47 43 46 39 38 37 36 34 34 36 37 39 39 40 40 40 40 40 40 41 38 37 36 35 35 36 41 44 45
49 45 25 12 19 29 18 38 41 39 48 44 48 50 48 39 36 41 38 35 32 31 31 31 32 34 33 34 37 39 39 38 39 38 40 41 39 38 38 38 37 38 41 44
48 58 52 46 30 13 25 34 43 42 38 54 40 44 46 42 38 39 28 27 28 29 30 31 32 33 32 34 34 31 33 33 32 37 39 40 40 41 38 39 38 38 39 42
20 19 42 44 35 31 43 34 10 22 21 31 34 29 24 25 24 28 36 38 35 37 34 38 37 36 36 37 34 35 35 33 32 36 39 40 39 37 38 39 39 37 38 41
37 23 23 31 38 17 38 38 31 34 31 26 27 23 28 34 38 35 33 34 36 36 36 36 35 35 37 34 33 33 33 32 31 31 32 34 35 34 36 38 37 37 40 43
44 35 26 22 23 17 34 22 26 21 25 26 25 25 27 26 29 29 28 26 29 35 37 38 38 35 32 32 33 32 29 27 28 29 29 29 30 31 31 32 35 38 40 33
25 29 26 27 39 43 34 30 26 25 27 27 30 31 31 37 35 35 34 31 34 37 39 40 39 37 34 31 28 28 27 25 23 22 22 23 23 23 18 12 10 12 14 16
30 38 37 43 48 47 45 36 36 37 33 34 33 33 35 35 31 33 32 31 33 32 28 24 22 21 19 20 22 22 21 22 21 20 17 14 11 10 10 11 11 11 12 12
44 35 37 42 36 41 39 35 32 27 26 26 28 33 33 29 29 31 31 32 31 28 26 22 21 20 18 19 20 20 17 13 11 9 7 6 5 5 5 7 9 11 14 15
Wind_Direction
238 238 238 250 257 257 263 268 271 274 278 278 279 280 277 272 269 271 270 270 267 264 258 246 245 247 251 254 258 259 257 256 253 249 249 253 258 262 265 266 265 260 254 253
241 246 250 252 252 253 258 263 267 280 280 281 284 279 277 273 275 276 275 269 270 267 260 253 249 251 254 256 257 257 255 255 256 253 250 252 254 257 262 265 265 262 256 256
250 248 250 249 253 253 257 260 271 278 284 285 289 285 283 279 276 277 279 281 274 273 273 263 255 256 256 258 259 258 257 255 254 254 253 252 254 257 261 267 269 261 251 249
255 247 244 251 253 254 260 264 269 273 279 284 289 289 282 284 282 284 287 284 283 280 274 260 256 255 257 257 256 255 254 255 254 253 253 254 255 257 261 263 265 260 252 249
246 251 249 251 258 259 264 267 268 269 275 283 278 269 279 286 285 290 294 285 284 274 266 255 252 249 248 247 248 248 248 248 250 252 251 251 252 255 258 260 262 262 252 247
246 249 249 252 255 249 253 254 262 269 264 266 265 252 281 278 287 290 288 291 289 272 262 266 262 257 260 259 257 257 258 257 254 251 250 250 252 254 255 257 259 260 254 249
242 244 246 247 247 241 237 232 216 262 181 238 229 218 266 276 283 288 288 302 281 269 264 279 266 260 253 256 254 257 263 261 259 257 253 250 249 251 252 255 256 257 253 250
240 247 248 246 244 239 238 237 219 204 195 250 221 236 270 281 281 286 291 288 260 243 252 256 254 259 266 269 269 271 274 267 263 259 255 251 248 249 252 254 255 256 250 244
237 248 253 247 247 241 229 227 250 245 263 286 262 267 273 276 279 284 289 269 267 236 246 248 258 265 270 285 283 281 272 266 260 257 250 246 246 248 252 254 255 253 248 243
245 253 254 253 239 227 224 241 206 198 190 236 257 257 262 268 293 291 269 238 247 246 244 241 231 273 298 306 302 289 282 275 263 256 249 244 243 245 248 251 253 250 246 242
245 239 263 246 238 240 224 228 219 218 224 191 253 263 276 281 272 211 230 239 208 225 281 237 236 273 309 313 303 295 282 280 268 261 256 249 242 242 245 248 249 245 243 240
250 241 249 250 252 247 238 242 234 213 214 228 248 263 272 273 247 242 248 234 214 278 279 244 246 295 309 317 305 304 288 276 273 266 257 251 248 247 247 248 249 244 243 241
244 217 236 259 252 243 237 236 237 232 240 241 224 257 265 250 260 254 244 237 256 261 258 247 279 297 305 306 297 300 295 277 279 272 263 260 258 255 251 250 250 244 243 241
246 232 225 232 235 232 231 241 236 235 227 241 239 253 253 254 260 262 245 268 261 248 256 274 290 291 292 299 291 291 296 284 276 273 270 265 263 261 256 253 251 246 244 242
239 233 236 245 252 253 252 248 245 235 239 233 252 249 265 266 271 273 269 259 249 250 264 274 278 279 285 294 285 286 289 286 273 269 269 268 266 260 256 253 248 244 244 242
255 238 238 251 264 253 249 247 242 240 245 248 254 259 268 273 272 273 278 277 270 273 280 280 278 280 283 286 286 280 279 281 278 271 267 265 264 263 259 254 249 246 245 243
259 250 247 246 258 254 244 248 244 247 249 249 245 264 281 279 278 279 285 286 283 282 280 276 276 277 277 276 273 270 270 272 272 271 263 261 262 262 261 257 252 248 247 245
259 265 240 249 253 226 250 257 257 258 261 257 257 266 267 274 280 284 285 281 280 283 283 280 276 272 274 272 269 267 272 273 270 268 261 259 262 260 261 261 258 253 249 247
245 245 256 245 239 254 254 256 254 244 260 261 259 265 269 275 281 281 282 279 278 279 279 279 278 277 274 274 272 271 271 269 272 269 262 257 258 260 259 259 258 254 250 247
255 255 255 257 253 257 262 274 263 263 253 269 260 266 277 284 272 277 278 270 270 270 276 278 281 277 277 281 280 276 275 273 269 263 258 255 257 260 254 252 252 249 245 243
245 246 232 239 247 249 256 261 259 211 243 273 281 280 266 264 278 286 291 293 288 286 279 281 283 278 278 278 273 281 279 277 267 258 255 255 256 254 251 249 248 244 241 241
261 254 246 243 243 255 242 244 250 267 281 260 260 273 279 283 282 289 293 290 292 290 286 283 283 282 279 276 280 278 279 276 269 262 259 258 260 259 252 248 243 239 236 238
245 247 251 248 247 247 237 238 250 239 262 260 274 284 276 273 281 279 286 285 287 288 285 285 284 279 273 276 283 282 274 269 265 259 255 255 255 253 250 246 245 249 249 248
255 251 251 258 255 263 264 258 279 284 294 290 277 276 272 273 276 271 272 271 279 281 283 285 280 272 275 276 271 270 266 261 252 244 240 240 242 247 239 230 238 249 253 252
265 266 268 273 277 283 277 287 287 283 280 278 273 273 276 273 273 272 269 279 280 277 276 280 279 274 265 255 251 248 241 236 235 240 237 231 233 243 248 253 256 258 264 267
267 273 266 267 276 281 281 281 275 275 271 269 269 267 268 266 270 266 273 273 263 262 269 276 267 255 247 236 234 237 243 241 240 255 271 273 274 270 262 264 270 269 267 263
Height
3150 3151 3152 3157 3158 3159 3159 3159 3159 3160 3159 3156 3156 3153 3155 3156 3153 3154 3155 3155 3155 3155 3158 3157 3157 3158 3158 3160 3161 3162 3163 3164 3165 3165 3167 3168 3169 3170 3170 3170 3171 3171 3172 3172
3147 3145 3152 3152 3153 3154 3154 3154 3155 3156 3154 3151 3149 3144 3146 3148 3148 3148 3148 3148 3148 3149 3150 3150 3150 3150 3151 3153 3154 3154 3156 3157 3158 3159 3159 3160 3162 3163 3163 3164 3164 3163 3164 3165
3141 3144 3145 3146 3147 3149 3149 3149 3152 3152 3150 3145 3143 3133 3136 3139 3138 3140 3141 3141 3141 3141 3142 3143 3143 3142 3143 3144 3146 3147 3148 3149 3149 3150 3150 3152 3153 3154 3156 3157 3157 3158 3159 3159
3135 3137 3140 3141 3141 3145 3143 3146 3147 3147 3147 3142 3140 3127 3126 3130 3129 3131 3134 3134 3134 3134 3133 3133 3134 3133 3133 3136 3136 3137 3138 3139 3140 3141 3142 3143 3146 3147 3149 3149 3149 3150 3151 3151
3126 3129 3133 3134 3136 3141 3139 3141 3142 3143 3143 3140 3132 3132 3114 3120 3118 3123 3125 3125 3126 3126 3124 3123 3123 3123 3122 3122 3124 3126 3127 3128 3130 3131 3133 3134 3136 3138 3140 3140 3141 3142 3143 3144
3119 3122 3125 3127 3130 3134 3133 3135 3138 3139 3140 3135 3123 3129 3096 3109 3112 3115 3117 3119 3119 3117 3115 3115 3115 3115 3115 3116 3116 3117 3119 3120 3120 3121 3123 3125 3127 3129 3130 3131 3132 3134 3135 3136
3110 3111 3115 3120 3123 3126 3127 3130 3135 3136 3136 3124 3120 3120 3086 3101 3105 3108 3108 3113 3111 3109 3110 3109 3108 3107 3108 3108 3109 3110 3110 3111 3111 3113 3114 3116 3118 3119 3121 3122 3124 3125 3127 3129
3103 3104 3105 3108 3111 3117 3119 3122 3124 3127 3128 3117 3116 3102 3084 3094 3097 3098 3100 3101 3101 3102 3102 3100 3099 3101 3102 3102 3103 3103 3102 3102 3103 3103 3105 3106 3109 3110 3112 3113 3115 3117 3119 3120
3099 3097 3097 3101 3104 3110 3110 3110 3113 3118 3115 3116 3103 3091 3082 3087 3090 3092 3093 3096 3096 3095 3095 3095 3095 3095 3096 3097 3096 3095 3094 3093 3093 3094 3094 3096 3098 3101 3104 3105 3107 3109 3110 3112
3093 3093 3094 3095 3097 3098 3099 3104 3108 3110 3112 3114 3090 3086 3076 3080 3083 3085 3086 3087 3089 3088 3089 3090 3091 3091 3091 3091 3089 3088 3087 3086 3085 3085 3085 3087 3089 3092 3095 3096 3098 3100 3102 3103
3087 3089 3087 3087 3085 3088 3094 3093 3097 3097 3097 3092 3093 3075 3074 3076 3079 3080 3081 3081 3082 3083 3084 3086 3086 3086 3086 3085 3083 3082 3080 3079 3077 3078 3079 3079 3080 3083 3085 3087 3088 3090 3092 3094
3078 3079 3078 3077 3079 3082 3082 3081 3083 3085 3086 3087 3083 3064 3069 3072 3074 3076 3077 3077 3078 3078 3080 3080 3081 3080 3078 3077 3076 3075 3074 3073 3071 3071 3071 3072 3073 3075 3076 3077 3079 3081 3083 3086
3071 3068 3072 3072 3072 3069 3069 3071 3076 3079 3079 3077 3076 3058 3062 3065 3068 3072 3074 3074 3074 3075 3074 3074 3074 3072 3071 3071 3070 3068 3067 3066 3065 3064 3064 3065 3066 3067 3067 3069 3070 3071 3073 3076
3063 3057 3056 3055 3055 3055 3057 3058 3062 3066 3067 3056 3064 3047 3054 3058 3061 3066 3069 3070 3070 3068 3068 3067 3065 3064 3065 3064 3062 3061 3060 3059 3058 3057 3057 3057 3058 3058 3059 3060 3060 3062 3064 3066
3052 3044 3046 3043 3048 3050 3049 3049 3053 3056 3052 3058 3043 3051 3026 3051 3052 3055 3060 3062 3061 3061 3060 3059 3057 3056 3056 3055 3053 3051 3051 3051 3050 3049 3049 3049 3049 3048 3048 3049 3050 3051 3053 3057
3038 3033 3035 3033 3034 3036 3039 3043 3044 3041 3040 3046 3036 3036 3025 3039 3040 3042 3045 3048 3047 3047 3048 3047 3046 3045 3044 3042 3041 3040 3040 3040 3039 3038 3039 3040 3040 3039 3038 3039 3040 3042 3044 3046
3028 3026 3027 3021 3022 3026 3028 3023 3022 3027 3026 3026 3028 3016 3026 3026 3028 3032 3033 3033 3032 3032 3032 3031 3031 3030 3029 3028 3028 3028 3028 3027 3027 3027 3028 3029 3030 3029 3029 3030 3030 3031 3033 3036
3022 3024 3019 3015 3017 3006 3002 3009 3012 3012 3011 3015 3015 3012 3013 3016 3020 3019 3020 3019 3019 3018 3017 3017 3016 3015 3015 3015 3015 3015 3015 3015 3015 3015 3016 3017 3019 3019 3019 3020 3020 3021 3023 3026
3014 3016 3013 3008 3002 3000 2997 2997 2997 2998 2996 3005 3007 3005 3004 3009 3008 3006 3011 3009 3007 3007 3005 3004 3003 3003 3004 3004 3003 3003 3003 3003 3003 3004 3004 3006 3007 3008 3009 3009 3009 3010 3013 3015
3000 3004 3003 3002 2996 2991 2987 2989 2993 2996 2989 2993 2997 2997 2997 2998 2994 2994 2996 2998 2997 2995 2994 2994 2993 2993 2993 2992 2991 2991 2991 2991 2992 2993 2994 2995 2995 2996 2997 2997 2998 3000 3002 3006
2988 2988 2986 2984 2979 2976 2982 2985 2985 2983 2983 2982 2986 2988 2988 2986 2986 2987 2985 2984 2988 2988 2987 2984 2983 2983 2982 2981 2980 2980 2979 2979 2980 2980 2981 2982 2983 2985 2986 2987 2987 2989 2991 2995
2981 2981 2978 2977 2974 2968 2973 2973 2974 2976 2978 2977 2980 2980 2979 2980 2978 2977 2976 2974 2974 2975 2975 2974 2973 2973 2972 2971 2969 2969 2969 2967 2969 2970 2970 2971 2974 2975 2976 2977 2978 2979 2980 2982
2969 2970 2968 2969 2964 2965 2962 2967 2968 2965 2968 2969 2971 2972 2971 2968 2969 2968 2968 2966 2964 2963 2963 2963 2963 2962 2961 2961 2960 2961 2959 2958 2959 2961 2961 2962 2965 2966 2967 2968 2969 2970 2971 2976
2955 2960 2956 2958 2956 2960 2960 2959 2955 2956 2960 2962 2962 2961 2960 2960 2960 2958 2956 2956 2955 2953 2952 2952 2952 2951 2951 2951 2951 2952 2952 2951 2951 2953 2952 2953 2956 2958 2960 2961 2963 2966 2968 2971
2949 2950 2949 2948 2949 2950 2950 2947 2947 2949 2951 2952 2951 2952 2952 2952 2948 2947 2948 2948 2948 2945 2944 2943 2943 2942 2940 2942 2942 2944 2944 2944 2945 2946 2947 2946 2949 2951 2954 2957 2960 2962 2965 2966
2941 2941 2941 2939 2944 2941 2939 2938 2939 2943 2944 2942 2941 2943 2941 2939 2938 2938 2939 2940 2940 2939 2938 2938 2938 2937 2934 2935 2936 2938 2938 2939 2939 2939 2941 2943 2946 2948 2951 2954 2956 2958 2959 2961